Theta_e
325 326 328 334 340 344 344 341 341 341 341 342 345 345 346 347 351 351 351 351 349 349 352 352 354 355 356 354 356 355 356 356 359 358 358 354 349 346 347 346 344 343 341 339
327 325 325 326 328 332 336 340 339 339 339 338 343 345 345 346 351 350 349 349 348 349 353 354 356 359 359 359 359 359 359 359 359 359 354 348 346 346 343 342 342 340 339 337
329 327 326 326 326 329 331 336 340 340 338 337 343 346 344 345 348 350 346 346 348 350 353 354 356 358 361 361 362 362 362 361 359 353 350 346 345 341 341 341 340 339 336 333
330 331 334 328 328 327 330 334 337 338 337 336 341 345 345 343 345 349 346 346 349 350 352 354 355 357 358 361 362 362 362 359 355 352 348 343 343 342 339 338 337 334 332 331
331 331 330 330 330 330 328 328 330 334 335 336 341 345 347 346 343 348 348 345 347 348 352 354 355 357 360 362 362 362 360 356 353 351 347 346 343 340 338 337 333 331 331 327
331 331 332 331 331 333 335 333 337 339 334 336 340 347 344 347 345 346 348 347 346 346 350 355 356 359 362 361 362 361 360 354 353 351 349 346 341 338 337 335 331 329 326 322
329 331 329 328 330 336 338 337 338 342 340 337 344 343 341 345 346 345 347 347 347 346 350 354 358 360 360 361 361 361 358 355 351 349 347 344 340 338 337 333 331 329 327 322
327 330 331 331 332 337 340 339 340 341 342 345 344 342 344 345 345 346 347 347 349 348 353 357 360 359 360 360 361 360 353 353 349 349 346 341 338 337 336 333 333 332 329 325
325 326 334 334 338 336 336 340 341 340 337 339 342 343 343 343 345 346 346 347 349 349 355 359 359 358 361 360 360 356 352 352 350 348 342 339 337 336 334 333 331 331 331 328
329 328 331 335 334 333 332 333 338 333 331 333 336 338 341 345 344 345 346 348 349 351 356 359 358 358 360 361 358 353 353 352 349 345 341 337 336 334 332 332 330 328 328 328
329 331 330 332 334 329 327 326 330 329 329 330 332 334 337 340 346 346 347 348 350 351 357 358 358 359 359 358 355 354 354 352 348 344 339 337 334 332 330 330 327 325 325 326
323 325 330 333 333 326 324 323 324 324 326 327 329 331 335 339 343 345 346 350 353 353 356 357 357 358 358 355 354 355 353 351 349 345 338 335 333 330 329 327 323 321 323 326
319 321 324 326 325 321 321 321 320 319 320 322 326 328 332 338 343 342 348 354 355 356 355 358 358 358 355 354 354 354 352 351 348 343 336 333 332 331 328 320 318 318 319 324
315 316 317 317 318 318 319 318 317 317 317 318 323 326 330 335 339 344 349 354 357 357 356 358 358 358 355 354 355 355 354 351 348 343 335 333 333 332 330 322 315 314 314 318
316 315 315 316 316 316 317 317 317 318 318 318 320 325 328 334 338 341 349 354 357 357 357 357 357 357 354 353 355 355 354 350 348 342 335 333 334 333 332 324 316 317 316 314
317 317 316 316 316 316 316 317 317 317 318 318 320 325 326 328 332 336 347 353 357 358 357 357 358 356 354 353 355 355 354 349 347 341 335 334 334 334 333 326 320 321 320 318
318 318 318 318 317 317 316 316 316 318 318 319 320 322 324 326 332 337 349 351 357 358 358 357 357 356 354 353 354 354 353 347 344 341 337 334 334 333 333 328 323 324 324 322
318 318 318 317 317 318 318 318 317 318 319 318 319 321 324 328 336 337 346 354 358 359 358 358 357 356 354 353 353 353 353 347 343 343 339 335 334 333 333 332 326 324 326 326
318 319 319 319 317 317 317 317 317 316 317 318 320 323 325 328 333 336 339 356 359 360 359 358 357 355 354 352 352 353 352 349 345 345 341 335 333 333 333 333 331 327 326 327
321 321 321 321 318 317 317 315 315 316 316 317 319 322 327 330 335 341 348 358 359 358 357 357 356 355 353 352 350 353 351 350 348 346 343 337 334 333 333 333 332 331 328 328
324 324 323 322 321 317 315 315 315 316 317 317 320 325 329 334 337 343 355 360 358 357 357 357 356 355 354 353 349 351 351 350 349 347 343 337 335 333 333 332 332 332 330 329
321 321 323 323 321 320 316 315 315 316 317 318 321 325 333 336 340 348 355 359 357 357 355 356 355 354 353 351 349 350 351 350 349 347 344 339 335 333 333 332 332 331 330 328
318 319 322 323 321 319 316 316 316 316 318 320 325 332 335 340 350 354 358 356 357 355 352 354 353 353 352 350 349 349 350 350 348 346 344 340 336 334 333 332 333 332 330 328
316 317 320 318 317 318 318 317 317 317 320 326 332 334 336 344 357 354 352 355 356 354 353 354 352 350 351 348 348 349 350 349 348 348 345 341 338 337 336 334 333 332 328 327
318 317 317 318 318 319 318 317 321 329 335 336 340 345 348 356 360 350 352 355 354 352 352 352 350 350 349 348 350 350 351 350 350 350 347 346 342 340 338 336 335 334 331 330
318 318 318 317 317 319 324 331 335 339 345 353 358 361 359 353 349 348 350 352 349 350 352 346 346 346 348 350 351 351 352 352 349 346 345 344 342 341 339 338 337 336 335 334
331 329 330 331 329 328 331 338 346 347 348 355 356 357 354 353 351 349 347 346 345 348 351 350 347 345 349 351 353 354 353 351 349 346 344 344 344 343 342 341 341 340 338 336
Wind_Speed
17 16 13 10 18 17 16 17 14 10 7 3 1 9 16 16 16 17 18 20 20 19 17 23 24 24 24 23 21 21 21 20 18 17 17 17 15 14 13 12 12 13 13 11
14 18 17 18 19 20 18 19 16 16 14 11 4 7 17 17 18 19 19 21 21 20 21 24 25 26 25 24 22 22 22 21 20 20 20 19 19 16 16 14 14 14 13 11
14 13 14 20 20 20 20 16 16 14 15 3 5 11 15 19 19 20 21 21 22 22 23 26 26 27 27 26 24 21 20 20 21 21 20 19 18 19 17 17 16 15 13 12
10 7 19 12 15 19 21 16 19 17 16 6 8 8 16 20 20 21 21 22 21 21 25 27 27 26 25 25 25 23 22 21 21 20 20 20 20 19 19 19 18 16 15 13
10 13 14 10 9 12 13 20 20 18 18 16 9 6 7 14 19 21 23 22 25 30 29 28 28 28 26 24 23 23 23 22 22 23 23 22 21 21 20 20 19 17 16 15
9 14 17 12 10 1 9 13 2 12 21 11 11 10 8 18 20 19 23 28 25 28 30 29 28 29 28 26 25 24 24 23 23 24 23 23 23 23 22 20 20 18 16 14
14 14 11 11 3 4 14 3 5 7 5 12 12 11 8 6 15 19 21 24 26 30 32 31 30 29 27 26 25 23 23 24 25 24 24 23 24 23 23 21 20 18 17 15
14 18 22 3 5 12 3 6 4 4 7 7 5 8 8 5 5 14 18 21 26 27 28 31 31 30 27 26 24 25 25 25 27 24 23 24 25 24 23 21 21 19 18 16
12 10 5 2 5 7 4 5 5 5 7 7 7 8 9 8 10 9 16 23 27 29 30 31 32 30 28 26 28 27 27 26 26 25 24 25 26 25 23 22 21 20 19 17
8 11 7 9 8 8 6 6 2 6 8 9 9 9 10 9 8 9 14 21 26 28 29 29 33 30 26 31 30 29 29 28 27 27 26 25 23 23 22 23 21 20 20 18
12 10 2 8 10 5 4 6 5 6 8 9 12 12 11 11 10 10 13 21 25 29 29 31 33 32 29 30 33 31 29 28 27 25 27 26 23 23 20 20 20 21 20 19
10 14 12 3 10 2 6 6 6 9 12 10 11 12 13 11 12 13 13 19 23 25 27 29 31 33 33 33 34 34 31 29 28 26 27 26 24 20 20 18 22 19 17 17
16 17 10 6 8 11 14 13 8 10 12 13 12 12 13 12 16 13 13 18 23 26 27 29 33 33 33 35 35 35 31 30 29 27 28 27 25 23 22 18 22 23 21 21
20 18 23 24 17 16 15 13 13 16 17 16 15 15 15 14 16 13 13 17 20 23 26 29 31 33 37 38 36 35 32 33 32 29 29 29 28 25 24 23 22 20 23 23
17 18 21 21 20 20 15 16 18 16 15 15 17 15 15 13 12 13 13 17 19 21 24 28 31 31 33 37 37 35 33 33 29 29 29 29 28 26 25 24 24 23 23 25
16 21 25 25 22 21 18 20 19 17 17 16 14 15 17 18 18 18 16 18 20 22 28 31 33 34 35 36 36 34 33 34 33 31 29 30 29 29 28 27 27 28 29 31
20 22 22 23 22 23 24 21 20 18 17 15 15 17 19 18 18 19 16 15 18 21 25 30 30 30 35 39 39 36 34 32 34 30 31 33 31 31 30 29 29 29 28 31
23 24 24 24 21 19 19 19 18 18 17 20 18 18 18 16 13 14 18 16 16 20 22 26 29 32 33 34 36 33 32 32 37 32 29 29 30 29 28 27 26 26 25 26
30 29 28 26 23 22 20 17 17 22 20 20 18 16 18 19 18 19 19 19 16 19 26 26 30 32 33 34 35 30 30 30 33 32 30 29 29 29 28 27 26 26 27 26
28 30 30 28 32 27 22 25 22 22 23 22 20 19 17 19 19 19 18 21 22 22 20 26 30 33 32 33 37 30 29 29 28 29 29 28 28 28 26 26 25 25 26 27
24 27 29 29 26 31 29 27 24 22 25 24 21 19 20 19 20 20 18 11 18 17 23 27 31 29 31 32 36 32 29 28 29 29 28 28 27 28 28 27 28 28 29 29
18 20 25 26 24 22 28 27 28 27 26 23 23 23 22 22 20 20 23 18 19 26 23 20 28 30 31 35 34 37 33 32 31 30 31 31 32 35 33 32 29 29 28 29
11 16 18 22 23 22 25 26 28 29 26 26 24 23 21 21 20 13 12 26 23 25 18 26 34 35 33 35 30 33 31 30 29 29 30 30 29 25 27 29 33 32 34 34
7 10 12 23 25 19 19 25 27 28 28 27 26 26 22 18 23 24 22 16 26 23 34 28 32 37 38 32 28 29 28 28 28 27 25 25 25 25 25 26 30 26 31 36
10 12 16 18 19 14 19 24 23 25 25 25 25 27 29 28 23 18 20 15 20 22 24 20 27 32 33 24 25 25 24 26 26 25 23 25 25 25 26 28 30 33 35 31
11 11 13 18 13 16 18 17 11 16 18 15 19 16 15 17 18 13 16 16 20 23 16 13 21 27 29 23 19 18 24 23 22 21 21 23 23 24 24 24 24 27 28 27
11 11 9 10 18 19 19 17 9 5 5 10 6 11 12 12 10 13 15 14 15 21 19 14 16 24 22 18 15 16 20 19 18 19 20 22 21 20 21 21 23 22 22 24
Wind_Direction
243 257 244 222 220 208 227 250 268 274 295 297 324 177 171 163 162 165 176 177 172 175 172 178 176 173 171 177 177 178 176 175 172 169 166 161 156 152 152 150 138 135 136 133
245 243 244 248 236 245 225 240 259 262 277 280 296 205 176 169 172 174 181 184 177 176 174 179 178 173 170 170 174 175 174 170 168 167 160 158 152 153 146 139 139 141 139 133
237 218 238 234 237 244 240 227 240 238 248 289 218 204 216 181 181 186 186 187 181 183 179 180 180 177 172 170 171 172 169 165 165 161 157 152 149 142 142 146 145 143 139 137
252 204 236 245 235 221 241 232 232 242 260 251 246 237 215 210 190 191 193 190 188 184 180 179 179 180 174 171 171 170 169 167 165 159 153 150 147 150 150 147 147 146 145 144
238 235 253 231 223 228 237 237 237 247 246 249 227 205 206 233 197 194 196 197 189 186 181 176 176 174 172 171 171 170 171 168 164 162 157 156 154 155 153 151 152 152 152 150
227 250 249 249 224 133 265 246 356 296 241 234 198 219 223 182 198 206 200 203 185 185 177 174 175 172 170 173 173 177 173 170 168 164 162 160 160 159 157 159 156 154 150 148
226 239 245 246 90 233 218 164 35 332 318 201 208 236 358 347 190 197 199 195 184 186 177 175 171 175 175 175 180 175 170 165 164 164 162 161 160 160 160 161 158 156 150 145
233 238 234 61 194 239 56 91 40 20 23 353 329 319 307 250 205 197 191 188 176 183 172 171 172 177 177 179 173 167 165 163 162 163 162 163 161 163 164 163 163 161 156 153
217 226 121 83 99 101 68 99 71 24 10 347 333 328 339 302 264 203 198 189 183 180 175 172 176 181 179 173 167 166 162 164 163 164 165 167 166 165 167 169 171 170 172 170
251 230 190 140 120 104 75 50 43 27 357 343 340 335 338 316 291 221 198 188 188 182 181 178 179 181 185 170 168 167 166 167 167 166 167 170 172 173 174 179 180 180 181 180
231 268 130 188 177 113 45 13 13 351 351 346 341 342 335 322 308 272 208 193 192 190 187 186 178 176 175 174 169 168 169 171 171 170 172 173 179 180 185 189 188 184 186 185
241 233 239 290 155 274 322 336 334 333 335 338 330 327 331 321 311 286 226 196 193 194 189 187 183 175 172 177 176 170 171 174 175 173 177 177 176 179 190 190 193 188 186 187
261 280 276 266 258 293 293 294 290 310 309 312 316 318 319 324 308 299 244 201 197 195 192 186 181 179 176 177 180 175 173 175 175 177 178 177 181 183 182 192 195 193 190 188
246 251 263 264 266 268 271 284 283 291 292 297 305 308 315 320 321 300 241 218 207 198 192 188 188 184 179 176 181 178 176 178 176 180 182 181 183 187 187 185 186 192 192 189
242 242 251 260 260 260 261 259 269 273 283 287 293 298 309 313 318 308 274 218 200 201 195 191 193 191 186 180 182 184 177 179 181 182 185 186 184 185 189 189 188 186 183 190
257 254 252 256 260 257 252 255 257 266 271 273 278 287 298 304 307 305 291 226 201 199 198 195 193 193 187 184 183 188 184 181 181 182 184 187 188 188 191 191 191 189 190 190
267 262 258 254 253 254 253 257 260 261 261 262 268 281 291 298 302 308 300 236 220 216 203 202 199 192 191 186 186 188 185 182 184 183 187 192 194 195 195 194 196 195 196 195
261 260 260 263 261 254 249 246 245 244 248 255 262 270 277 288 293 296 291 252 216 219 215 209 198 192 195 196 192 192 189 181 187 192 191 195 198 199 201 201 201 201 201 198
271 267 261 253 250 252 252 248 247 243 243 247 254 258 267 276 282 284 275 245 217 221 220 206 199 194 193 198 197 196 196 189 190 196 197 195 198 202 203 204 204 205 204 197
257 255 252 252 241 239 244 243 241 244 247 246 249 255 261 265 276 275 257 238 215 218 221 206 196 196 196 198 198 199 199 198 196 197 198 197 200 204 206 207 208 209 209 210
248 243 242 236 234 229 233 237 237 239 244 245 247 252 259 267 272 269 252 230 230 226 222 202 195 196 197 195 192 200 200 202 201 200 199 198 199 200 203 210 208 210 214 214
258 246 237 225 221 217 221 225 231 239 243 244 245 252 258 265 264 254 244 229 221 215 194 201 202 202 196 192 192 200 201 202 203 201 200 197 198 200 202 196 205 199 218 219
253 256 228 213 209 206 213 222 230 235 241 241 242 244 252 259 256 238 224 221 224 209 174 211 209 199 191 186 195 202 203 204 204 206 206 206 205 205 206 212 212 203 198 211
234 224 196 194 194 196 210 222 229 234 238 243 244 250 247 249 247 236 231 228 203 192 197 204 200 190 186 186 192 200 201 204 206 210 213 210 208 210 218 220 220 215 215 209
198 184 183 184 191 197 209 222 225 233 238 245 250 253 249 234 235 220 217 216 195 187 192 208 203 195 185 200 199 191 201 205 204 207 208 215 216 218 219 217 217 219 220 219
171 174 180 191 194 198 209 217 231 235 224 224 222 215 203 199 206 209 197 200 173 175 186 161 184 193 194 203 194 187 205 205 202 207 215 220 220 220 221 224 226 228 229 228
173 182 178 193 208 214 218 218 210 191 221 175 165 168 162 156 162 178 182 172 179 175 156 145 168 186 201 193 188 199 207 205 205 211 216 224 224 220 221 225 229 229 226 230